Reading, PA

2:07 AM EDT on May 28, 2017 (GMT -0400)
Reading Regional-Spaatz

Weather History for KRDG - July, 2013

Change the Weather History Date:

Sunday, July 7, 2013

  Actual Average Record
Temperature  
Mean Temperature 82 °F 75 °F  
Max Temperature 92 °F 85 °F 103 °F (2012)
Min Temperature 71 °F 64 °F 49 °F (1979)
Degree Days  
Heating Degree Days 0 0  
Month to date heating degree days 0 0  
Since 1 June heating degree days 2 24  
Since 1 July heating degree days 0 0  
Cooling Degree Days 17 10  
Month to date cooling degree days 110 67  
Year to date cooling degree days 450 316  
Since 1 June cooling degree days 351 256  
Growing Degree Days 32 (Base 50)    
Moisture  
Dew Point 70 °F    
Average Humidity 70    
Maximum Humidity 87    
Minimum Humidity 52    
Precipitation  
Precipitation T in 0.13 in 2.10 in (1984)
Month to date precipitation 1.17 0.97  
Year to date precipitation 20.42 21.77  
Sea Level Pressure  
Sea Level Pressure 30.04 in    
Wind  
Wind Speed 5 mph (WSW)    
Max Wind Speed 28 mph    
Max Gust Speed 35 mph    
Visibility 10 miles    
Events Rain , Thunderstorm    
T = Trace of Precipitation, MM = Missing Value Source: NWS Daily Summary

Daily Weather History Graph

Daily Weather History Graph

Search for Another Location

Airport or City:

Trip Planner

Search our weather history database for the weather conditions in past years. The results will help you decide how hot, cold, wet, or windy it might be!

Date:

Astronomy

Jul. 07, 2013 Rise Set
Actual Time 5:41 AM EDT 8:36 PM EDT
Civil Twilight 5:08 AM EDT 9:08 PM EDT
Nautical Twilight 4:27 AM EDT 9:50 PM EDT
Astronomical Twilight 3:39 AM EDT 10:37 PM EDT
Moon 5:15 AM EDT (7/7) 7:58 PM EDT (7/7)
Length of Visible Light 16h 00m
Length of Day
14h 55m
Waning Crescent, 0% of the Moon is Illuminated
Jul 7
Waning Crescent
Jul 8
New
Jul 15
First Quarter
Jul 22
Full
Jul 29
Last Quarter

Hourly Weather History & Observations

Time (EDT) Temp. Heat Index Dew Point Humidity Pressure Visibility Wind Dir Wind Speed Gust Speed Precip Events Conditions
12:54 AM 80.1 °F 84.2 °F 73.0 °F 79% 30.09 in 10.0 mi SW 4.6 mph - N/A   Clear
1:54 AM 79.0 °F - 71.1 °F 77% 30.08 in 10.0 mi Calm Calm - N/A   Clear
2:54 AM 75.9 °F - 71.1 °F 85% 30.07 in 10.0 mi Calm Calm - N/A   Clear
3:54 AM 78.1 °F - 69.1 °F 74% 30.06 in 10.0 mi Calm Calm - N/A   Clear
4:54 AM 75.9 °F - 69.1 °F 79% 30.06 in 10.0 mi Calm Calm - N/A   Clear
5:54 AM 75.0 °F - 69.1 °F 82% 30.06 in 10.0 mi Calm Calm - N/A   Clear
6:54 AM 75.9 °F - 70.0 °F 82% 30.08 in 10.0 mi SSW 3.5 mph - N/A   Clear
7:54 AM 79.0 °F - 70.0 °F 74% 30.07 in 10.0 mi SW 3.5 mph - N/A   Clear
8:54 AM 82.0 °F 86.7 °F 72.0 °F 71% 30.08 in 10.0 mi SW 3.5 mph - N/A   Clear
9:54 AM 84.9 °F 90.7 °F 72.0 °F 65% 30.06 in 10.0 mi Variable 3.5 mph - N/A   Clear
10:54 AM 87.1 °F 95.4 °F 73.9 °F 65% 30.06 in 10.0 mi WSW 3.5 mph - N/A   Clear
11:54 AM 89.1 °F 97.0 °F 73.0 °F 59% 30.05 in 10.0 mi West 9.2 mph - N/A   Clear
12:54 PM 90.0 °F 97.9 °F 73.0 °F 57% 30.04 in 10.0 mi Variable 5.8 mph - N/A   Partly Cloudy
1:54 PM 90.0 °F 99.0 °F 73.9 °F 59% 30.02 in 10.0 mi West 6.9 mph - N/A   Partly Cloudy
2:54 PM 91.0 °F 98.2 °F 72.0 °F 53% 30.00 in 10.0 mi SW 6.9 mph - N/A   Clear
3:54 PM 91.0 °F 98.2 °F 72.0 °F 53% 29.99 in 10.0 mi SSW 9.2 mph - N/A   Clear
4:54 PM 90.0 °F 96.9 °F 72.0 °F 55% 29.98 in 10.0 mi SSW 12.7 mph - N/A   Partly Cloudy
5:54 PM 90.0 °F 96.4 °F 71.1 °F 54% 29.97 in 10.0 mi SW 11.5 mph - N/A   Clear
6:47 PM 77.0 °F - 66.2 °F 69% 30.01 in 10.0 mi West 16.1 mph 24.2 mph 0.00 in Thunderstorm Overcast
6:54 PM 75.9 °F - 66.9 °F 74% 30.02 in 10.0 mi WNW 15.0 mph 21.9 mph 0.00 in Rain , Thunderstorm Light Thunderstorms and Rain
7:31 PM 73.4 °F - 68.0 °F 83% 30.00 in 10.0 mi WNW 3.5 mph - 0.00 in Rain Light Rain
7:54 PM 73.0 °F - 68.0 °F 84% 30.01 in 10.0 mi SSW 4.6 mph - 0.00 in   Partly Cloudy
8:54 PM 73.9 °F - 68.0 °F 82% 30.02 in 10.0 mi West 4.6 mph - N/A   Clear
9:54 PM 73.0 °F - 66.9 °F 81% 30.04 in 10.0 mi WSW 5.8 mph - N/A   Clear
10:54 PM 72.0 °F - 66.9 °F 84% 30.04 in 10.0 mi West 6.9 mph - 0.00 in   Partly Cloudy
11:54 PM 71.1 °F - 66.9 °F 87% 30.04 in 10.0 mi WSW 4.6 mph - N/A   Clear